Time,TemperatureF,DewpointF,PressureIn,WindDirection,WindDirectionDegrees,WindSpeedMPH,WindSpeedGustMPH,Humidity,HourlyPrecipIn,Conditions,Clouds,dailyrainin,SoftwareType,DateUTC
2013-08-18 00:01:00,57.6,57.0,30.07,ESE,106,2.0,5.0,98,0.00,,,0.03,meteohub,2013-08-18 04:01:00,
2013-08-18 00:06:00,57.6,57.0,30.07,ENE,59,1.0,4.0,98,0.00,,,0.03,meteohub,2013-08-18 04:06:00,
2013-08-18 00:11:00,57.6,57.0,30.07,East,97,1.0,4.0,98,0.00,,,0.03,meteohub,2013-08-18 04:11:00,
2013-08-18 00:16:00,57.6,57.0,30.07,East,98,1.0,6.0,98,0.00,,,0.03,meteohub,2013-08-18 04:16:00,
2013-08-18 00:21:00,57.6,57.0,30.07,ESE,108,2.0,6.0,98,0.00,,,0.03,meteohub,2013-08-18 04:21:00,
2013-08-18 00:27:00,57.6,57.0,30.07,East,88,0.0,6.0,98,0.00,,,0.03,meteohub,2013-08-18 04:27:00,
2013-08-18 00:32:00,57.6,57.0,30.07,ENE,66,1.0,6.0,98,0.00,,,0.03,meteohub,2013-08-18 04:32:00,
2013-08-18 00:37:00,57.6,57.0,30.07,SE,125,2.0,6.0,98,0.00,,,0.03,meteohub,2013-08-18 04:37:00,
2013-08-18 00:42:00,57.6,57.0,30.08,ENE,68,2.0,4.0,98,0.01,,,0.04,meteohub,2013-08-18 04:42:00,
2013-08-18 00:47:00,57.6,57.0,30.07,ENE,73,4.0,4.0,98,0.01,,,0.04,meteohub,2013-08-18 04:47:00,
2013-08-18 00:52:00,57.4,56.8,30.07,ENE,75,2.0,5.0,98,0.01,,,0.04,meteohub,2013-08-18 04:52:00,
2013-08-18 00:57:00,57.4,56.8,30.07,NE,41,1.0,6.0,98,0.01,,,0.04,meteohub,2013-08-18 04:57:00,
2013-08-18 01:02:00,57.4,56.8,30.07,NE,48,3.0,6.0,98,0.01,,,0.04,meteohub,2013-08-18 05:02:00,
2013-08-18 01:07:00,57.4,56.8,30.07,East,92,1.0,6.0,98,0.01,,,0.04,meteohub,2013-08-18 05:07:00,
2013-08-18 01:12:00,57.4,56.8,30.07,East,92,0.0,6.0,98,0.02,,,0.05,meteohub,2013-08-18 05:12:00,
2013-08-18 01:17:00,57.4,56.8,30.07,East,81,1.0,3.0,98,0.02,,,0.05,meteohub,2013-08-18 05:17:00,
2013-08-18 01:22:00,57.2,56.7,30.07,East,81,1.0,3.0,98,0.02,,,0.05,meteohub,2013-08-18 05:22:00,
2013-08-18 01:27:00,57.2,56.7,30.06,NE,46,0.0,4.0,98,0.02,,,0.05,meteohub,2013-08-18 05:27:00,
2013-08-18 01:32:00,57.0,56.5,30.06,ESE,109,1.0,4.0,98,0.02,,,0.05,meteohub,2013-08-18 05:32:00,
2013-08-18 01:37:00,57.0,56.5,30.06,East,98,0.0,4.0,98,0.02,,,0.05,meteohub,2013-08-18 05:37:00,
2013-08-18 01:42:00,57.0,56.5,30.06,East,98,1.0,3.0,98,0.01,,,0.05,meteohub,2013-08-18 05:42:00,
2013-08-18 01:47:00,57.0,56.5,30.06,East,93,1.0,3.0,98,0.01,,,0.05,meteohub,2013-08-18 05:47:00,
2013-08-18 01:52:00,57.0,56.5,30.06,East,93,0.0,2.0,98,0.01,,,0.05,meteohub,2013-08-18 05:52:00,
2013-08-18 01:57:00,57.0,56.5,30.06,East,93,0.0,2.0,98,0.01,,,0.05,meteohub,2013-08-18 05:57:00,
2013-08-18 02:02:00,57.0,56.5,30.06,East,98,1.0,2.0,98,0.01,,,0.05,meteohub,2013-08-18 06:02:00,
2013-08-18 02:07:00,57.0,56.5,30.05,NE,52,1.0,3.0,98,0.02,,,0.06,meteohub,2013-08-18 06:07:00,
2013-08-18 02:12:00,57.0,56.5,30.05,NE,45,1.0,3.0,98,0.01,,,0.06,meteohub,2013-08-18 06:12:00,
2013-08-18 02:17:00,57.0,56.5,30.05,NE,52,1.0,4.0,98,0.01,,,0.06,meteohub,2013-08-18 06:17:00,
2013-08-18 02:22:00,57.0,56.5,30.05,NE,46,3.0,4.0,98,0.01,,,0.06,meteohub,2013-08-18 06:22:00,
2013-08-18 02:27:00,57.0,56.5,30.05,NE,54,0.0,4.0,98,0.01,,,0.06,meteohub,2013-08-18 06:27:00,
2013-08-18 02:32:00,57.0,56.5,30.05,East,100,1.0,4.0,98,0.01,,,0.06,meteohub,2013-08-18 06:32:00,
2013-08-18 02:37:00,57.0,56.5,30.05,East,100,0.0,3.0,98,0.01,,,0.06,meteohub,2013-08-18 06:37:00,
2013-08-18 02:42:00,57.0,56.5,30.05,East,100,0.0,2.0,98,0.01,,,0.06,meteohub,2013-08-18 06:42:00,
2013-08-18 02:47:00,57.0,56.5,30.04,East,100,0.0,2.0,98,0.01,,,0.06,meteohub,2013-08-18 06:47:00,
2013-08-18 02:52:00,57.0,56.5,30.04,East,100,1.0,1.0,98,0.01,,,0.06,meteohub,2013-08-18 06:52:00,
2013-08-18 02:57:00,57.0,56.5,30.05,East,100,1.0,2.0,98,0.01,,,0.06,meteohub,2013-08-18 06:57:00,
2013-08-18 03:02:00,57.0,56.5,30.05,East,100,0.0,2.0,98,0.00,,,0.06,meteohub,2013-08-18 07:02:00,
2013-08-18 03:07:00,57.0,56.5,30.05,East,100,0.0,2.0,98,0.00,,,0.06,meteohub,2013-08-18 07:07:00,
2013-08-18 03:12:00,57.0,56.5,30.05,East,100,1.0,2.0,98,0.00,,,0.06,meteohub,2013-08-18 07:12:00,
2013-08-18 03:17:00,57.0,56.5,30.05,East,100,0.0,1.0,98,0.00,,,0.06,meteohub,2013-08-18 07:17:00,
2013-08-18 03:22:00,57.0,56.5,30.04,East,100,0.0,1.0,98,0.00,,,0.06,meteohub,2013-08-18 07:22:00,
2013-08-18 03:27:00,57.0,56.5,30.04,East,100,0.0,1.0,98,0.00,,,0.06,meteohub,2013-08-18 07:27:00,
2013-08-18 03:32:00,57.0,56.5,30.04,East,100,0.0,1.0,98,0.00,,,0.06,meteohub,2013-08-18 07:32:00,
2013-08-18 03:37:00,57.0,56.5,30.04,East,100,0.0,2.0,98,0.00,,,0.06,meteohub,2013-08-18 07:37:00,
2013-08-18 03:42:00,57.0,56.5,30.04,East,100,0.0,3.0,98,0.00,,,0.06,meteohub,2013-08-18 07:42:00,
2013-08-18 03:47:00,57.0,56.5,30.04,East,100,0.0,3.0,98,0.00,,,0.06,meteohub,2013-08-18 07:47:00,
2013-08-18 03:52:00,57.0,56.5,30.04,East,100,0.0,2.0,98,0.00,,,0.06,meteohub,2013-08-18 07:52:00,
2013-08-18 03:57:00,57.0,56.5,30.04,East,100,0.0,1.0,98,0.00,,,0.06,meteohub,2013-08-18 07:57:00,
2013-08-18 04:02:00,57.2,56.7,30.04,East,100,0.0,1.0,98,0.00,,,0.06,meteohub,2013-08-18 08:02:00,
2013-08-18 04:07:00,57.2,56.7,30.04,East,100,0.0,1.0,98,0.00,,,0.06,meteohub,2013-08-18 08:07:00,
2013-08-18 04:12:00,57.2,56.7,30.04,East,100,0.0,2.0,98,0.00,,,0.06,meteohub,2013-08-18 08:12:00,
2013-08-18 04:17:00,57.2,56.7,30.04,East,100,2.0,2.0,98,0.00,,,0.06,meteohub,2013-08-18 08:17:00,
2013-08-18 04:22:00,57.0,56.5,30.04,East,100,1.0,2.0,98,0.00,,,0.06,meteohub,2013-08-18 08:22:00,
2013-08-18 04:27:00,57.0,56.5,30.04,East,100,1.0,2.0,98,0.00,,,0.06,meteohub,2013-08-18 08:27:00,
2013-08-18 04:32:00,57.0,56.5,30.04,ESE,106,0.0,2.0,98,0.00,,,0.06,meteohub,2013-08-18 08:32:00,
2013-08-18 04:37:00,57.0,56.5,30.04,ESE,106,0.0,2.0,98,0.00,,,0.06,meteohub,2013-08-18 08:37:00,
2013-08-18 04:42:00,57.0,56.5,30.04,ESE,106,0.0,2.0,98,0.00,,,0.06,meteohub,2013-08-18 08:42:00,
2013-08-18 04:47:00,57.0,56.5,30.04,ESE,106,0.0,2.0,98,0.00,,,0.06,meteohub,2013-08-18 08:47:00,
2013-08-18 04:52:00,57.0,56.5,30.04,ESE,106,0.0,1.0,98,0.00,,,0.06,meteohub,2013-08-18 08:52:00,
2013-08-18 04:57:00,57.0,56.5,30.04,ESE,106,1.0,1.0,98,0.00,,,0.06,meteohub,2013-08-18 08:57:00,
2013-08-18 05:02:00,57.0,56.5,30.04,ESE,106,1.0,2.0,98,0.00,,,0.06,meteohub,2013-08-18 09:02:00,
2013-08-18 05:06:00,57.0,56.5,30.04,East,84,2.0,2.0,98,0.00,,,0.06,meteohub,2013-08-18 09:06:00,
2013-08-18 05:12:00,57.0,56.5,30.04,ENE,65,1.0,2.0,98,0.00,,,0.06,meteohub,2013-08-18 09:12:00,
2013-08-18 05:17:00,57.0,56.5,30.04,NE,54,2.0,2.0,98,0.00,,,0.06,meteohub,2013-08-18 09:17:00,
2013-08-18 05:22:00,57.0,56.5,30.04,ENE,76,1.0,3.0,98,0.00,,,0.06,meteohub,2013-08-18 09:22:00,
2013-08-18 05:27:00,57.0,56.5,30.05,East,87,0.0,3.0,98,0.00,,,0.06,meteohub,2013-08-18 09:27:00,
2013-08-18 05:32:00,57.0,56.5,30.06,East,87,0.0,3.0,98,0.00,,,0.06,meteohub,2013-08-18 09:32:00,
2013-08-18 05:37:00,57.0,56.5,30.05,East,87,0.0,2.0,98,0.00,,,0.06,meteohub,2013-08-18 09:37:00,
2013-08-18 05:42:00,57.2,56.7,30.06,East,87,0.0,1.0,98,0.00,,,0.06,meteohub,2013-08-18 09:42:00,
2013-08-18 05:47:00,57.2,56.7,30.06,East,87,0.0,1.0,98,0.00,,,0.06,meteohub,2013-08-18 09:47:00,
2013-08-18 05:52:00,57.4,56.8,30.06,East,87,0.0,1.0,98,0.00,,,0.06,meteohub,2013-08-18 09:52:00,
2013-08-18 05:57:00,57.4,56.8,30.06,East,87,0.0,2.0,98,0.00,,,0.06,meteohub,2013-08-18 09:57:00,
2013-08-18 06:02:00,57.4,56.8,30.06,East,87,0.0,2.0,98,0.00,,,0.06,meteohub,2013-08-18 10:02:00,
2013-08-18 06:07:00,57.4,56.8,30.06,East,87,2.0,2.0,98,0.00,,,0.06,meteohub,2013-08-18 10:07:00,
2013-08-18 06:12:00,57.4,56.8,30.06,East,87,0.0,2.0,98,0.00,,,0.06,meteohub,2013-08-18 10:12:00,
2013-08-18 06:17:00,57.4,56.8,30.06,East,87,1.0,3.0,98,0.00,,,0.06,meteohub,2013-08-18 10:17:00,
2013-08-18 06:22:00,57.4,56.8,30.06,East,87,2.0,3.0,98,0.00,,,0.06,meteohub,2013-08-18 10:22:00,
2013-08-18 06:27:00,57.4,56.8,30.06,East,87,0.0,3.0,98,0.00,,,0.06,meteohub,2013-08-18 10:27:00,
2013-08-18 06:32:00,57.4,56.8,30.07,East,87,0.0,3.0,98,0.00,,,0.06,meteohub,2013-08-18 10:32:00,
2013-08-18 06:37:00,57.4,56.8,30.07,East,86,2.0,3.0,98,0.01,,,0.07,meteohub,2013-08-18 10:37:00,
2013-08-18 06:42:00,57.6,57.0,30.07,East,97,2.0,4.0,98,0.01,,,0.07,meteohub,2013-08-18 10:42:00,
2013-08-18 06:47:00,57.4,56.8,30.07,NE,43,2.0,4.0,98,0.01,,,0.07,meteohub,2013-08-18 10:47:00,
2013-08-18 06:52:00,57.4,56.8,30.08,ESE,115,1.0,4.0,98,0.01,,,0.07,meteohub,2013-08-18 10:52:00,
2013-08-18 06:57:00,57.4,56.8,30.08,ESE,115,1.0,3.0,98,0.01,,,0.07,meteohub,2013-08-18 10:57:00,
2013-08-18 07:02:00,57.4,56.8,30.08,ENE,60,1.0,3.0,98,0.01,,,0.07,meteohub,2013-08-18 11:02:00,
2013-08-18 07:07:00,57.4,56.8,30.08,East,84,1.0,3.0,98,0.01,,,0.07,meteohub,2013-08-18 11:07:00,
2013-08-18 07:12:00,57.6,57.0,30.08,East,84,0.0,3.0,98,0.01,,,0.07,meteohub,2013-08-18 11:12:00,
2013-08-18 07:17:00,57.6,57.0,30.08,East,84,0.0,3.0,98,0.02,,,0.08,meteohub,2013-08-18 11:17:00,
2013-08-18 07:22:00,57.6,57.0,30.08,East,84,0.0,2.0,98,0.02,,,0.08,meteohub,2013-08-18 11:22:00,
2013-08-18 07:27:00,57.6,57.0,30.08,NE,54,1.0,2.0,98,0.02,,,0.08,meteohub,2013-08-18 11:27:00,
2013-08-18 07:32:00,57.6,57.0,30.08,East,91,1.0,3.0,98,0.01,,,0.08,meteohub,2013-08-18 11:32:00,
2013-08-18 07:37:00,57.6,57.0,30.09,East,91,1.0,5.0,98,0.01,,,0.08,meteohub,2013-08-18 11:37:00,
2013-08-18 07:42:00,57.6,57.0,30.09,East,91,1.0,5.0,98,0.01,,,0.08,meteohub,2013-08-18 11:42:00,
2013-08-18 07:47:00,57.6,57.0,30.09,ESE,115,3.0,5.0,98,0.01,,,0.08,meteohub,2013-08-18 11:47:00,
2013-08-18 07:52:00,57.6,57.0,30.09,ENE,61,3.0,5.0,98,0.02,,,0.09,meteohub,2013-08-18 11:52:00,
2013-08-18 07:57:00,57.6,57.0,30.09,ESE,115,2.0,5.0,98,0.02,,,0.09,meteohub,2013-08-18 11:57:00,
2013-08-18 08:02:00,57.7,57.2,30.09,East,85,2.0,7.0,98,0.02,,,0.09,meteohub,2013-08-18 12:02:00,
2013-08-18 08:07:00,57.7,57.2,30.09,East,93,0.0,7.0,98,0.02,,,0.09,meteohub,2013-08-18 12:07:00,
2013-08-18 08:12:00,57.7,57.2,30.09,ENE,61,1.0,7.0,98,0.01,,,0.09,meteohub,2013-08-18 12:12:00,
2013-08-18 08:17:00,57.7,57.2,30.09,NE,48,0.0,4.0,98,0.01,,,0.09,meteohub,2013-08-18 12:17:00,
2013-08-18 08:22:00,57.7,57.2,30.09,NE,43,0.0,4.0,98,0.01,,,0.09,meteohub,2013-08-18 12:22:00,
2013-08-18 08:27:00,57.9,57.4,30.09,NE,52,1.0,4.0,98,0.01,,,0.09,meteohub,2013-08-18 12:27:00,
2013-08-18 08:32:00,57.9,57.4,30.09,East,93,2.0,4.0,98,0.01,,,0.09,meteohub,2013-08-18 12:32:00,
2013-08-18 08:37:00,58.1,57.6,30.09,West,279,1.0,6.0,98,0.01,,,0.09,meteohub,2013-08-18 12:37:00,
2013-08-18 08:42:00,58.3,57.7,30.10,NNE,29,2.0,6.0,98,0.01,,,0.09,meteohub,2013-08-18 12:42:00,
2013-08-18 08:47:00,58.3,57.7,30.10,West,275,1.0,6.0,98,0.00,,,0.09,meteohub,2013-08-18 12:47:00,
2013-08-18 08:52:00,58.5,57.9,30.11,West,266,1.0,2.0,98,0.00,,,0.09,meteohub,2013-08-18 12:52:00,
2013-08-18 08:57:00,58.6,58.1,30.11,SW,222,2.0,2.0,98,0.00,,,0.09,meteohub,2013-08-18 12:57:00,
2013-08-18 09:02:00,58.6,58.1,30.11,SSW,194,2.0,4.0,98,0.00,,,0.09,meteohub,2013-08-18 13:02:00,
2013-08-18 09:07:00,58.8,58.3,30.11,East,101,1.0,6.0,98,0.00,,,0.09,meteohub,2013-08-18 13:07:00,
2013-08-18 09:12:00,58.8,58.3,30.11,South,187,1.0,6.0,98,0.00,,,0.09,meteohub,2013-08-18 13:12:00,
2013-08-18 09:17:00,59.0,58.5,30.11,SE,129,1.0,6.0,98,0.00,,,0.09,meteohub,2013-08-18 13:17:00,
2013-08-18 09:22:00,59.0,58.5,30.11,ESE,109,1.0,4.0,98,0.00,,,0.09,meteohub,2013-08-18 13:22:00,
2013-08-18 09:27:00,59.2,58.6,30.11,East,91,0.0,4.0,98,0.00,,,0.09,meteohub,2013-08-18 13:27:00,
2013-08-18 09:32:00,59.4,58.8,30.11,East,91,0.0,4.0,98,0.00,,,0.09,meteohub,2013-08-18 13:32:00,
2013-08-18 09:37:00,59.4,58.8,30.11,East,91,0.0,2.0,98,0.00,,,0.09,meteohub,2013-08-18 13:37:00,
2013-08-18 09:42:00,59.4,58.8,30.11,East,91,0.0,2.0,98,0.00,,,0.09,meteohub,2013-08-18 13:42:00,
2013-08-18 09:47:00,59.5,59.0,30.11,South,184,0.0,3.0,98,0.00,,,0.09,meteohub,2013-08-18 13:47:00,
2013-08-18 09:52:00,59.7,59.2,30.11,West,260,1.0,5.0,98,0.00,,,0.09,meteohub,2013-08-18 13:52:00,
2013-08-18 09:57:00,59.9,59.4,30.11,ENE,77,1.0,5.0,98,0.00,,,0.09,meteohub,2013-08-18 13:57:00,
2013-08-18 10:02:00,60.3,59.7,30.11,SE,125,3.0,4.0,98,0.00,,,0.09,meteohub,2013-08-18 14:02:00,
2013-08-18 10:07:00,60.3,59.7,30.11,NE,46,2.0,4.0,98,0.00,,,0.09,meteohub,2013-08-18 14:07:00,
2013-08-18 10:12:00,60.3,59.7,30.11,ESE,120,0.0,4.0,98,0.00,,,0.09,meteohub,2013-08-18 14:12:00,
2013-08-18 10:17:00,60.3,59.7,30.11,SSW,199,1.0,4.0,98,0.00,,,0.09,meteohub,2013-08-18 14:17:00,
2013-08-18 10:22:00,60.4,59.9,30.11,SSE,150,1.0,3.0,98,0.00,,,0.09,meteohub,2013-08-18 14:22:00,
2013-08-18 10:27:00,60.6,60.1,30.11,SSE,150,1.0,3.0,98,0.00,,,0.09,meteohub,2013-08-18 14:27:00,
2013-08-18 10:32:00,61.0,60.4,30.11,SSE,150,1.0,3.0,98,0.00,,,0.09,meteohub,2013-08-18 14:32:00,
2013-08-18 10:37:00,61.2,60.6,30.12,SSE,148,1.0,2.0,98,0.00,,,0.09,meteohub,2013-08-18 14:37:00,
2013-08-18 10:42:00,61.2,60.6,30.12,ESE,120,2.0,3.0,98,0.00,,,0.09,meteohub,2013-08-18 14:42:00,
2013-08-18 10:47:00,61.3,60.8,30.12,SSE,154,0.0,3.0,98,0.00,,,0.09,meteohub,2013-08-18 14:47:00,
2013-08-18 10:52:00,61.3,60.8,30.12,ESE,102,3.0,3.0,98,0.00,,,0.09,meteohub,2013-08-18 14:52:00,
2013-08-18 10:57:00,61.3,60.8,30.12,East,99,4.0,5.0,98,0.00,,,0.09,meteohub,2013-08-18 14:57:00,
2013-08-18 11:02:00,61.3,60.8,30.13,ENE,77,2.0,6.0,98,0.00,,,0.09,meteohub,2013-08-18 15:02:00,
2013-08-18 11:07:00,61.3,60.8,30.13,ESE,106,4.0,6.0,98,0.00,,,0.09,meteohub,2013-08-18 15:07:00,
2013-08-18 11:12:00,61.2,60.6,30.13,NE,52,3.0,7.0,98,0.00,,,0.09,meteohub,2013-08-18 15:12:00,
2013-08-18 11:17:00,61.2,60.6,30.13,SE,129,1.0,8.0,98,0.00,,,0.09,meteohub,2013-08-18 15:17:00,
2013-08-18 11:22:00,61.3,60.8,30.13,SSE,154,0.0,8.0,98,0.00,,,0.09,meteohub,2013-08-18 15:22:00,
2013-08-18 11:27:00,61.2,60.6,30.13,ESE,111,1.0,7.0,98,0.00,,,0.09,meteohub,2013-08-18 15:27:00,
2013-08-18 11:31:00,61.5,61.0,30.12,West,279,2.0,7.0,98,0.00,,,0.09,meteohub,2013-08-18 15:31:00,
2013-08-18 11:36:00,61.9,61.3,30.12,WNW,291,0.0,6.0,98,0.00,,,0.09,meteohub,2013-08-18 15:36:00,
2013-08-18 11:42:00,61.5,61.0,30.12,NW,311,0.0,8.0,98,0.00,,,0.09,meteohub,2013-08-18 15:42:00,
2013-08-18 11:47:00,61.9,61.3,30.12,SSW,207,1.0,8.0,98,0.00,,,0.09,meteohub,2013-08-18 15:47:00,
2013-08-18 11:52:00,62.2,61.7,30.11,WNW,289,5.0,8.0,98,0.00,,,0.09,meteohub,2013-08-18 15:52:00,
2013-08-18 11:57:00,62.6,61.7,30.11,NNW,331,0.0,6.0,97,0.00,,,0.09,meteohub,2013-08-18 15:57:00,
2013-08-18 12:02:00,63.0,61.9,30.11,NNE,26,1.0,6.0,96,0.00,,,0.09,meteohub,2013-08-18 16:02:00,
2013-08-18 12:07:00,63.3,62.2,30.11,South,179,0.0,6.0,96,0.00,,,0.09,meteohub,2013-08-18 16:07:00,
2013-08-18 12:12:00,63.7,61.7,30.11,WNW,287,2.0,4.0,93,0.00,,,0.09,meteohub,2013-08-18 16:12:00,
2013-08-18 12:17:00,63.7,62.2,30.11,North,9,1.0,4.0,95,0.00,,,0.09,meteohub,2013-08-18 16:17:00,
2013-08-18 12:22:00,64.0,61.7,30.11,ESE,115,0.0,4.0,92,0.00,,,0.09,meteohub,2013-08-18 16:22:00,
2013-08-18 12:27:00,64.8,62.1,30.11,ESE,102,2.0,2.0,91,0.00,,,0.09,meteohub,2013-08-18 16:27:00,
2013-08-18 12:32:00,65.1,62.4,30.11,SE,129,3.0,3.0,91,0.00,,,0.09,meteohub,2013-08-18 16:32:00,
2013-08-18 12:37:00,65.5,63.1,30.11,West,281,1.0,4.0,92,0.00,,,0.09,meteohub,2013-08-18 16:37:00,
2013-08-18 12:42:00,66.2,63.5,30.11,West,281,5.0,7.0,91,0.00,,,0.09,meteohub,2013-08-18 16:42:00,
2013-08-18 12:46:00,66.4,62.4,30.11,SE,133,1.0,7.0,87,0.00,,,0.09,meteohub,2013-08-18 16:46:00,
2013-08-18 12:51:00,66.4,62.8,30.11,ENE,70,1.0,7.0,88,0.00,,,0.09,meteohub,2013-08-18 16:51:00,
2013-08-18 12:57:00,66.4,62.8,30.11,ESE,102,1.0,5.0,88,0.00,,,0.09,meteohub,2013-08-18 16:57:00,
2013-08-18 13:02:00,66.0,61.7,30.11,NNW,328,2.0,4.0,86,0.00,,,0.09,meteohub,2013-08-18 17:02:00,
2013-08-18 13:07:00,66.0,63.0,30.11,SSE,158,1.0,7.0,90,0.00,,,0.09,meteohub,2013-08-18 17:07:00,
2013-08-18 13:12:00,66.0,62.1,30.11,East,95,3.0,7.0,87,0.00,,,0.09,meteohub,2013-08-18 17:12:00,
2013-08-18 13:17:00,66.4,62.4,30.11,SSE,154,1.0,7.0,87,0.00,,,0.09,meteohub,2013-08-18 17:17:00,
2013-08-18 13:22:00,66.7,62.4,30.10,West,281,6.0,6.0,86,0.00,,,0.09,meteohub,2013-08-18 17:22:00,
2013-08-18 13:27:00,66.9,62.6,30.10,SE,136,2.0,8.0,86,0.00,,,0.09,meteohub,2013-08-18 17:27:00,
2013-08-18 13:32:00,67.5,62.8,30.10,East,83,1.0,9.0,85,0.00,,,0.09,meteohub,2013-08-18 17:32:00,
2013-08-18 13:37:00,67.6,62.6,30.10,SSE,157,0.0,9.0,84,0.00,,,0.09,meteohub,2013-08-18 17:37:00,
2013-08-18 13:42:00,68.2,63.1,30.10,ESE,104,1.0,5.0,84,0.00,,,0.09,meteohub,2013-08-18 17:42:00,
2013-08-18 13:47:00,68.2,62.8,30.10,East,96,2.0,8.0,83,0.00,,,0.09,meteohub,2013-08-18 17:47:00,
2013-08-18 13:52:00,68.2,63.1,30.10,ESE,115,1.0,8.0,84,0.00,,,0.09,meteohub,2013-08-18 17:52:00,
2013-08-18 13:57:00,68.5,63.1,30.09,East,99,4.0,8.0,83,0.00,,,0.09,meteohub,2013-08-18 17:57:00,
2013-08-18 14:02:00,68.4,61.9,30.09,SSE,151,1.0,5.0,80,0.00,,,0.09,meteohub,2013-08-18 18:02:00,
2013-08-18 14:07:00,68.7,63.3,30.09,East,81,0.0,5.0,83,0.00,,,0.09,meteohub,2013-08-18 18:07:00,
2013-08-18 14:12:00,68.9,63.1,30.09,ESE,102,0.0,5.0,82,0.00,,,0.09,meteohub,2013-08-18 18:12:00,
2013-08-18 14:17:00,69.1,63.7,30.09,ESE,102,2.0,5.0,83,0.00,,,0.09,meteohub,2013-08-18 18:17:00,
2013-08-18 14:22:00,69.3,63.5,30.09,West,263,4.0,5.0,82,0.00,,,0.09,meteohub,2013-08-18 18:22:00,
2013-08-18 14:27:00,69.1,63.3,30.09,WSW,251,2.0,9.0,82,0.00,,,0.09,meteohub,2013-08-18 18:27:00,
2013-08-18 14:32:00,69.1,63.3,30.09,ENE,78,1.0,9.0,82,0.00,,,0.09,meteohub,2013-08-18 18:32:00,
2013-08-18 14:37:00,69.3,63.9,30.09,SSE,162,1.0,9.0,83,0.00,,,0.09,meteohub,2013-08-18 18:37:00,
2013-08-18 14:42:00,69.1,63.3,30.09,ESE,115,4.0,8.0,82,0.00,,,0.09,meteohub,2013-08-18 18:42:00,
2013-08-18 14:47:00,68.5,63.5,30.09,East,101,2.0,8.0,84,0.00,,,0.09,meteohub,2013-08-18 18:47:00,
2013-08-18 14:52:00,68.4,63.7,30.09,ESE,115,3.0,8.0,85,0.00,,,0.09,meteohub,2013-08-18 18:52:00,
2013-08-18 14:57:00,67.6,63.0,30.09,ENE,73,5.0,7.0,85,0.00,,,0.09,meteohub,2013-08-18 18:57:00,
2013-08-18 15:02:00,67.5,63.1,30.08,SSW,208,2.0,8.0,86,0.00,,,0.09,meteohub,2013-08-18 19:02:00,
2013-08-18 15:07:00,67.5,63.1,30.08,ESE,104,3.0,8.0,86,0.00,,,0.09,meteohub,2013-08-18 19:07:00,
2013-08-18 15:12:00,67.8,63.5,30.08,SE,131,4.0,7.0,86,0.00,,,0.09,meteohub,2013-08-18 19:12:00,
2013-08-18 15:17:00,67.8,63.5,30.08,ESE,110,2.0,7.0,86,0.00,,,0.09,meteohub,2013-08-18 19:17:00,
2013-08-18 15:22:00,68.2,63.5,30.08,ESE,111,0.0,7.0,85,0.00,,,0.09,meteohub,2013-08-18 19:22:00,
2013-08-18 15:27:00,68.2,63.5,30.08,ESE,115,3.0,7.0,85,0.00,,,0.09,meteohub,2013-08-18 19:27:00,
2013-08-18 15:32:00,67.8,63.5,30.08,SSE,147,1.0,7.0,86,0.00,,,0.09,meteohub,2013-08-18 19:32:00,
2013-08-18 15:37:00,67.8,63.5,30.08,ENE,72,1.0,7.0,86,0.00,,,0.09,meteohub,2013-08-18 19:37:00,
2013-08-18 15:42:00,67.3,62.6,30.08,SE,125,2.0,5.0,85,0.00,,,0.09,meteohub,2013-08-18 19:42:00,
2013-08-18 15:47:00,66.7,62.4,30.08,ENE,75,1.0,8.0,86,0.00,,,0.09,meteohub,2013-08-18 19:47:00,
2013-08-18 15:52:00,66.4,62.4,30.08,South,176,1.0,8.0,87,0.00,,,0.09,meteohub,2013-08-18 19:52:00,
2013-08-18 15:57:00,66.0,62.4,30.07,SE,130,2.0,8.0,88,0.00,,,0.09,meteohub,2013-08-18 19:57:00,
2013-08-18 16:02:00,65.8,62.2,30.07,SSE,154,2.0,8.0,88,0.00,,,0.09,meteohub,2013-08-18 20:02:00,
2013-08-18 16:07:00,65.8,62.2,30.07,ENE,75,6.0,6.0,88,0.00,,,0.09,meteohub,2013-08-18 20:07:00,
2013-08-18 16:12:00,65.8,62.8,30.07,WSW,258,4.0,6.0,90,0.00,,,0.09,meteohub,2013-08-18 20:12:00,
2013-08-18 16:17:00,65.8,62.2,30.07,SSW,200,0.0,6.0,88,0.00,,,0.09,meteohub,2013-08-18 20:17:00,
2013-08-18 16:22:00,65.7,62.1,30.07,SE,146,1.0,6.0,88,0.00,,,0.09,meteohub,2013-08-18 20:22:00,
2013-08-18 16:27:00,65.5,61.9,30.06,SSE,167,2.0,6.0,88,0.00,,,0.09,meteohub,2013-08-18 20:27:00,
2013-08-18 16:32:00,65.5,61.9,30.07,SSE,167,2.0,6.0,88,0.00,,,0.09,meteohub,2013-08-18 20:32:00,
2013-08-18 16:37:00,65.5,61.9,30.06,North,-999,-999.0,6.0,88,0.00,,,0.09,meteohub,2013-08-18 20:37:00,
2013-08-18 16:41:00,65.5,61.9,30.06,ESE,115,2.0,5.0,88,0.00,,,0.09,meteohub,2013-08-18 20:41:00,
2013-08-18 16:47:00,65.3,61.7,30.06,SE,125,3.0,6.0,88,0.00,,,0.09,meteohub,2013-08-18 20:47:00,
2013-08-18 16:52:00,64.8,61.5,30.07,East,90,5.0,6.0,89,0.00,,,0.09,meteohub,2013-08-18 20:52:00,
2013-08-18 16:57:00,64.0,61.7,30.07,East,85,3.0,10.0,92,0.01,,,0.10,meteohub,2013-08-18 20:57:00,
2013-08-18 17:02:00,63.3,61.3,30.06,ENE,65,2.0,10.0,93,0.01,,,0.10,meteohub,2013-08-18 21:02:00,
2013-08-18 17:07:00,63.1,61.2,30.06,South,190,1.0,10.0,93,0.01,,,0.10,meteohub,2013-08-18 21:07:00,
2013-08-18 17:12:00,63.0,61.0,30.06,ENE,77,4.0,6.0,93,0.01,,,0.10,meteohub,2013-08-18 21:12:00,
2013-08-18 17:17:00,63.0,61.0,30.06,SE,125,1.0,7.0,93,0.01,,,0.10,meteohub,2013-08-18 21:17:00,
2013-08-18 17:22:00,62.8,60.8,30.06,East,99,1.0,7.0,93,0.01,,,0.10,meteohub,2013-08-18 21:22:00,
2013-08-18 17:27:00,62.6,60.6,30.06,West,274,5.0,9.0,93,0.01,,,0.10,meteohub,2013-08-18 21:27:00,
2013-08-18 17:32:00,62.6,60.6,30.06,WSW,255,2.0,9.0,93,0.01,,,0.10,meteohub,2013-08-18 21:32:00,
2013-08-18 17:37:00,62.6,60.8,30.06,WNW,293,4.0,8.0,94,0.01,,,0.10,meteohub,2013-08-18 21:37:00,
2013-08-18 17:42:00,62.4,60.4,30.06,WNW,289,1.0,7.0,93,0.01,,,0.10,meteohub,2013-08-18 21:42:00,
2013-08-18 17:47:00,62.4,60.4,30.06,West,273,1.0,7.0,93,0.01,,,0.10,meteohub,2013-08-18 21:47:00,
2013-08-18 17:52:00,62.4,60.4,30.05,WNW,291,2.0,9.0,93,0.01,,,0.10,meteohub,2013-08-18 21:52:00,
2013-08-18 17:57:00,62.2,59.9,30.06,WNW,285,5.0,9.0,92,0.00,,,0.10,meteohub,2013-08-18 21:57:00,
2013-08-18 18:02:00,62.2,60.3,30.06,WNW,292,4.0,8.0,93,0.00,,,0.10,meteohub,2013-08-18 22:02:00,
2013-08-18 18:07:00,62.2,60.3,30.06,West,279,2.0,8.0,93,0.00,,,0.10,meteohub,2013-08-18 22:07:00,
2013-08-18 18:12:00,62.2,60.3,30.06,West,279,0.0,8.0,93,0.00,,,0.10,meteohub,2013-08-18 22:12:00,
2013-08-18 18:17:00,62.2,60.4,30.06,West,267,0.0,7.0,94,0.00,,,0.10,meteohub,2013-08-18 22:17:00,
2013-08-18 18:22:00,62.1,60.3,30.06,East,91,2.0,5.0,94,0.00,,,0.10,meteohub,2013-08-18 22:22:00,
2013-08-18 18:27:00,62.1,60.3,30.06,WNW,288,4.0,4.0,94,0.00,,,0.10,meteohub,2013-08-18 22:27:00,
2013-08-18 18:32:00,62.1,60.3,30.06,West,275,0.0,5.0,94,0.00,,,0.10,meteohub,2013-08-18 22:32:00,
2013-08-18 18:37:00,61.9,60.1,30.06,WNW,288,2.0,5.0,94,0.00,,,0.10,meteohub,2013-08-18 22:37:00,
2013-08-18 18:42:00,61.9,59.9,30.06,West,277,2.0,8.0,93,0.00,,,0.10,meteohub,2013-08-18 22:42:00,
2013-08-18 18:47:00,61.9,59.9,30.06,WNW,289,1.0,8.0,93,0.00,,,0.10,meteohub,2013-08-18 22:47:00,
2013-08-18 18:52:00,61.9,59.9,30.06,WNW,289,2.0,8.0,93,0.00,,,0.10,meteohub,2013-08-18 22:52:00,
2013-08-18 18:57:00,61.9,60.1,30.06,WNW,294,2.0,6.0,94,0.00,,,0.10,meteohub,2013-08-18 22:57:00,
2013-08-18 19:02:00,61.9,59.0,30.06,West,261,5.0,5.0,90,0.00,,,0.10,meteohub,2013-08-18 23:02:00,
2013-08-18 19:07:00,62.2,59.2,30.06,West,281,4.0,10.0,90,0.00,,,0.10,meteohub,2013-08-18 23:07:00,
2013-08-18 19:12:00,62.2,59.0,30.06,West,279,2.0,10.0,89,0.00,,,0.10,meteohub,2013-08-18 23:12:00,
2013-08-18 19:17:00,62.4,58.8,30.06,West,266,4.0,10.0,88,0.00,,,0.10,meteohub,2013-08-18 23:17:00,
2013-08-18 19:22:00,62.4,58.5,30.06,WNW,285,5.0,8.0,87,0.00,,,0.10,meteohub,2013-08-18 23:22:00,
2013-08-18 19:27:00,62.4,58.5,30.06,WNW,288,6.0,12.0,87,0.00,,,0.10,meteohub,2013-08-18 23:27:00,
2013-08-18 19:32:00,62.4,58.5,30.07,WNW,289,6.0,12.0,87,0.00,,,0.10,meteohub,2013-08-18 23:32:00,
2013-08-18 19:37:00,62.4,58.5,30.07,WNW,289,6.0,12.0,87,0.00,,,0.10,meteohub,2013-08-18 23:37:00,
2013-08-18 19:42:00,62.2,58.3,30.07,West,274,4.0,11.0,87,0.00,,,0.10,meteohub,2013-08-18 23:42:00,
2013-08-18 19:47:00,62.2,58.3,30.08,WNW,285,2.0,13.0,87,0.00,,,0.10,meteohub,2013-08-18 23:47:00,
2013-08-18 19:52:00,62.2,58.6,30.08,WNW,286,1.0,13.0,88,0.00,,,0.10,meteohub,2013-08-18 23:52:00,
2013-08-18 19:57:00,62.1,58.5,30.08,West,270,4.0,13.0,88,0.00,,,0.10,meteohub,2013-08-18 23:57:00,
2013-08-18 20:02:00,61.9,58.6,30.08,WNW,288,4.0,7.0,89,0.00,,,0.10,meteohub,2013-08-19 00:02:00,
2013-08-18 20:07:00,61.9,58.3,30.08,WNW,293,2.0,7.0,88,0.00,,,0.00,meteohub,2013-08-19 00:07:00,
2013-08-18 20:12:00,61.9,58.3,30.08,WNW,285,5.0,8.0,88,0.00,,,0.00,meteohub,2013-08-19 00:12:00,
2013-08-18 20:17:00,61.7,58.5,30.08,West,274,2.0,8.0,89,0.00,,,0.00,meteohub,2013-08-19 00:17:00,
2013-08-18 20:22:00,61.3,58.1,30.08,West,281,6.0,8.0,89,0.00,,,0.00,meteohub,2013-08-19 00:22:00,
2013-08-18 20:27:00,61.3,58.1,30.09,WNW,289,4.0,7.0,89,0.00,,,0.00,meteohub,2013-08-19 00:27:00,
2013-08-18 20:32:00,61.3,58.1,30.09,WNW,285,1.0,7.0,89,0.00,,,0.00,meteohub,2013-08-19 00:32:00,
2013-08-18 20:37:00,61.3,58.1,30.09,West,262,7.0,8.0,89,0.00,,,0.00,meteohub,2013-08-19 00:37:00,
2013-08-18 20:42:00,61.3,58.1,30.09,WNW,289,5.0,8.0,89,0.00,,,0.00,meteohub,2013-08-19 00:42:00,
2013-08-18 20:47:00,61.3,58.1,30.09,West,273,4.0,8.0,89,0.00,,,0.00,meteohub,2013-08-19 00:47:00,
2013-08-18 20:52:00,61.3,58.1,30.09,West,261,4.0,8.0,89,0.00,,,0.00,meteohub,2013-08-19 00:52:00,
2013-08-18 20:56:00,61.3,58.1,30.09,West,281,0.0,7.0,89,0.00,,,0.00,meteohub,2013-08-19 00:56:00,
2013-08-18 21:02:00,61.5,57.9,30.09,WNW,286,0.0,7.0,88,0.00,,,0.00,meteohub,2013-08-19 01:02:00,
2013-08-18 21:07:00,61.5,58.3,30.09,WNW,289,1.0,6.0,89,0.00,,,0.00,meteohub,2013-08-19 01:07:00,
2013-08-18 21:12:00,61.5,58.6,30.09,WNW,289,0.0,6.0,90,0.00,,,0.00,meteohub,2013-08-19 01:12:00,
2013-08-18 21:17:00,61.3,58.5,30.09,WNW,289,0.0,5.0,90,0.00,,,0.00,meteohub,2013-08-19 01:17:00,
2013-08-18 21:22:00,61.3,58.5,30.09,WNW,289,1.0,5.0,90,0.00,,,0.00,meteohub,2013-08-19 01:22:00,
2013-08-18 21:27:00,61.2,58.3,30.09,West,275,2.0,5.0,90,0.00,,,0.00,meteohub,2013-08-19 01:27:00,
2013-08-18 21:32:00,61.2,58.3,30.09,WNW,284,1.0,5.0,90,0.00,,,0.00,meteohub,2013-08-19 01:32:00,
2013-08-18 21:37:00,61.2,58.3,30.09,West,275,2.0,5.0,90,0.00,,,0.00,meteohub,2013-08-19 01:37:00,
2013-08-18 21:42:00,61.2,57.9,30.10,West,281,2.0,5.0,89,0.00,,,0.00,meteohub,2013-08-19 01:42:00,
2013-08-18 21:47:00,61.3,58.5,30.10,West,281,2.0,7.0,90,0.00,,,0.00,meteohub,2013-08-19 01:47:00,
2013-08-18 21:52:00,61.3,58.1,30.10,West,279,2.0,7.0,89,0.00,,,0.00,meteohub,2013-08-19 01:52:00,
2013-08-18 21:57:00,61.3,58.5,30.10,WNW,290,4.0,7.0,90,0.00,,,0.00,meteohub,2013-08-19 01:57:00,
2013-08-18 22:02:00,61.3,58.5,30.11,WNW,290,0.0,5.0,90,0.00,,,0.00,meteohub,2013-08-19 02:02:00,
2013-08-18 22:07:00,61.2,58.5,30.11,WNW,290,0.0,4.0,91,0.00,,,0.00,meteohub,2013-08-19 02:07:00,
2013-08-18 22:12:00,61.2,58.8,30.11,WNW,290,0.0,4.0,92,0.00,,,0.00,meteohub,2013-08-19 02:12:00,
2013-08-18 22:17:00,61.2,58.8,30.11,WNW,290,0.0,2.0,92,0.00,,,0.00,meteohub,2013-08-19 02:17:00,
2013-08-18 22:22:00,61.0,58.6,30.11,WNW,290,0.0,1.0,92,0.00,,,0.00,meteohub,2013-08-19 02:22:00,
2013-08-18 22:27:00,60.8,58.8,30.11,WNW,290,0.0,1.0,93,0.00,,,0.00,meteohub,2013-08-19 02:27:00,
2013-08-18 22:32:00,60.8,58.8,30.11,WNW,290,0.0,1.0,93,0.00,,,0.00,meteohub,2013-08-19 02:32:00,
2013-08-18 22:37:00,60.6,58.6,30.11,WNW,290,0.0,1.0,93,0.00,,,0.00,meteohub,2013-08-19 02:37:00,
2013-08-18 22:42:00,60.4,58.6,30.11,WNW,290,0.0,0.0,94,0.00,,,0.00,meteohub,2013-08-19 02:42:00,
2013-08-18 22:47:00,60.4,58.6,30.11,WNW,290,0.0,0.0,94,0.00,,,0.00,meteohub,2013-08-19 02:47:00,
2013-08-18 22:52:00,60.4,58.6,30.10,WNW,290,0.0,0.0,94,0.00,,,0.00,meteohub,2013-08-19 02:52:00,
2013-08-18 22:57:00,60.1,58.3,30.10,WNW,290,0.0,0.0,94,0.00,,,0.00,meteohub,2013-08-19 02:57:00,
2013-08-18 23:02:00,60.1,58.6,30.10,WNW,290,0.0,0.0,95,0.00,,,0.00,meteohub,2013-08-19 03:02:00,
2013-08-18 23:07:00,60.1,58.6,30.10,WNW,290,0.0,0.0,95,0.00,,,0.00,meteohub,2013-08-19 03:07:00,
2013-08-18 23:12:00,59.9,58.5,30.10,WNW,290,0.0,1.0,95,0.00,,,0.00,meteohub,2013-08-19 03:12:00,
2013-08-18 23:17:00,59.9,58.5,30.10,WNW,290,0.0,1.0,95,0.00,,,0.00,meteohub,2013-08-19 03:17:00,
2013-08-18 23:22:00,59.9,58.8,30.10,WNW,290,0.0,2.0,96,0.00,,,0.00,meteohub,2013-08-19 03:22:00,
2013-08-18 23:27:00,59.7,58.6,30.10,WNW,290,0.0,2.0,96,0.00,,,0.00,meteohub,2013-08-19 03:27:00,
2013-08-18 23:32:00,59.7,58.6,30.10,WNW,290,0.0,1.0,96,0.00,,,0.00,meteohub,2013-08-19 03:32:00,
2013-08-18 23:37:00,59.5,58.5,30.10,WNW,290,0.0,1.0,96,0.00,,,0.00,meteohub,2013-08-19 03:37:00,
2013-08-18 23:42:00,59.5,58.5,30.10,WNW,290,0.0,0.0,96,0.00,,,0.00,meteohub,2013-08-19 03:42:00,
2013-08-18 23:47:00,59.4,58.3,30.10,WNW,290,0.0,0.0,96,0.00,,,0.00,meteohub,2013-08-19 03:47:00,
2013-08-18 23:52:00,59.4,58.3,30.10,WNW,290,0.0,0.0,96,0.00,,,0.00,meteohub,2013-08-19 03:52:00,
2013-08-18 23:57:00,59.4,58.3,30.10,WNW,290,0.0,0.0,96,0.00,,,0.00,meteohub,2013-08-19 03:57:00,